Regional Weather Roundup
Issued by NWS Sioux Falls, SD

Home | Current Version | Previous Version | Text Only | Print | Product List | Glossary On
Versions: 1 2 3 4 5 6 7 8 9 10 11 12 13 14 15 16 17 18 19 20 21 22 23 24 25 26 27 28 29 30 31 32 33 34 35 36 37 38 39 40 41 42 43 44 45 46 47 48 49 50
000
ASUS43 KFSD 241610
RWRFSD

WEATHER ROUNDUP FOR SE SOUTH DAKOTA/SW MINNESOTA/NW IOWA
NATIONAL WEATHER SERVICE SIOUX FALLS SD
1100 AM CDT SUN MAY 24 2015

NOTE: "FAIR" INDICATES FEW OR NO CLOUDS BELOW 12,000 FEET WITH NO
SIGNIFICANT WEATHER AND OR OBSTRUCTIONS TO VISIBILITY.


SDZ038>040-050-052>070-241700-
SOUTHEAST SOUTH DAKOTA

CITY           SKY/WX    TMP DP  RH WIND       PRES   REMARKS
BROOKINGS      CLOUDY    59  55  88 E8        29.95F
CHAMBERLAIN    CLOUDY    57  57  99 NE8       29.91F FOG
HURON          LGT RAIN  59  58  96 E6G17     29.93F FOG
MADISON        LGT RAIN  57  57 100 E14       29.93F
MITCHELL       LGT RAIN  61  59  93 NE8       29.91F FOG
SIOUX FALLS    CLOUDY    61  58  90 E10       29.90F
WINNER         CLOUDY    57  55  93 E12       29.91S FOG
YANKTON        CLOUDY    61  57  88 NE10      29.87F
$$

MNZ071-072-080-081-089-090-097-098-241700-
SOUTHWEST MINNESOTA

CITY           SKY/WX    TMP DP  RH WIND       PRES   REMARKS
FAIRMONT       CLOUDY    61  54  77 E14       29.95F
JACKSON        DRIZZLE   59  59 100 E17G24    29.95F
LUVERNE        LGT RAIN  61  59  94 E12G17    29.92F
MARSHALL       CLOUDY    61  54  77 E9        29.96F
MONTEVIDEO     LGT RAIN  63  57  82 SE9       29.98F
REDWOOD FALLS  LGT RAIN  61  57  87 E7        29.97F FOG
TRACY          DRIZZLE   60  59  94 E7        29.97S
WINDOM         LGT RAIN  61  57  88 E10       29.95F
WORTHINGTON    CLOUDY    59  54  82 E12       29.93F
$$

IAZ001>003-012>014-020>022-031-032-NEZ013-014-SDZ071-241700-
NORTHWEST IOWA

CITY           SKY/WX    TMP DP  RH WIND       PRES   REMARKS
CHEROKEE       LGT RAIN  60  60 100 E13       29.87F
DENISON        CLOUDY    61  61 100 E7        29.83F
ESTHERVILLE    LGT RAIN  59  57  93 E15       29.92F FOG
LE MARS        CLOUDY    63  59  88 E8G17     29.88F
ORANGE CITY    CLOUDY    61  57  88 E12       29.88F
SHELDON        CLOUDY    61  59  94 E14G22    29.88F
SIOUX CITY     CLOUDY    63  59  87 E7        29.85F
SPENCER        LGT RAIN  60  58  92 E16       29.90F FOG
STORM LAKE     CLOUDY    59  59 100 E14G20    29.88F FOG
$$

ABBREVIATIONS USED IN REMARKS
   TC - TEMPERATURE IN CELSIUS
  WCI - WIND CHILL INDEX
   HX - HEAT INDEX
  VSB - VISIBILITY



USA.gov is the U.S. government's official web portal to all federal, state and local government web resources and services.